Regional Weather Roundup
Issued by NWS

Home | Current Version | Previous Version | Text Only | Print | Product List | Glossary Off
Versions: 1 2 3 4 5 6 7 8 9 10 11 12 13 14 15 16 17 18 19 20 21 22 23 24 25 26 27 28 29 30 31 32 33 34 35 36 37 38 39 40 41 42 43 44 45 46 47 48 49 50

000
ASUS43 KOAX 021302
RWRNE
WEATHER ROUNDUP FOR NEBRASKA
NATIONAL WEATHER SERVICE OMAHA NE
800 AM CDT TUE JUN 02 2015

NOTES: SATELLITE DATA IS BEING USED TO AUGMENT CLOUD COVER ABOVE
       12000 FEET.
       "FAIR" INDICATES FEW OR NO CLOUDS BELOW 12,000 FEET WITH NO
       SIGNIFICANT WEATHER AND/OR OBSTRUCTIONS TO VISIBILITY.

  * THESE STATIONS DO NOT REPORT WEATHER SUCH AS RAIN...SNOW OR FOG.

NEZ001>004-019>022-054>056-021400-
NEBRASKA PANHANDLE

CITY           SKY/WX    TMP DP  RH WIND       PRES   REMARKS
SCOTTSBLUFF    PTSUNNY   62  58  86 W7        29.94F
ALLIANCE       MOSUNNY   63  57  81 SW10      29.92F
CHADRON        MOSUNNY   68  55  63 S10       29.82F
SIDNEY         SUNNY     59  55  87 S14G21    29.95F
$$

NEZ057>060-069>072-079>082-021400-
SOUTHWEST NEBRASKA

CITY           SKY/WX    TMP DP  RH WIND       PRES   REMARKS
NORTH PLATTE   PTSUNNY   63  56  78 SW8       29.92R
IMPERIAL       MOSUNNY   61  56  83 SW6       29.94R
MCCOOK         PTSUNNY   63  59  87 S13       29.89F
$$

NEZ005>010-023>029-035>040-094-021400-
NORTH CENTRAL NEBRASKA

CITY           SKY/WX    TMP DP  RH WIND       PRES   REMARKS
BROKEN BOW     CLOUDY    65  60  84 SE13G21   29.88R
ORD            CLOUDY    62  57  83 SE15      29.88S
$$

NEZ041-046>049-061>064-073>077-083>087-021400-
SOUTH CENTRAL NEBRASKA

CITY           SKY/WX    TMP DP  RH WIND       PRES   REMARKS
GRAND ISLAND   CLOUDY    61  57  87 SE21G28   29.92F
HASTINGS       CLOUDY    60  57  89 SE20G30   29.91F
KEARNEY *      CLOUDY    61  57  88 S14       29.90R
$$

NEZ011>018-030>034-042>045-021400-
NORTHEAST NEBRASKA

CITY           SKY/WX    TMP DP  RH WIND       PRES   REMARKS
COLUMBUS *     CLOUDY    59  52  77 SE14      29.99F
TEKAMAH        CLOUDY    62  54  74 S20       30.03S
$$

NEZ050>053-065>068-078-088>093-021400-
SOUTHEAST NEBRASKA

CITY           SKY/WX    TMP DP  RH WIND       PRES   REMARKS
LINCOLN        CLOUDY    59  54  83 S14       30.03F
OMAHA EPPLEY   CLOUDY    60  54  80 S17       30.07R
FALLS CITY     PTSUNNY   58  54  86 SE10      30.07F
$$

NEZ044-045-051>053-067-021400-
OMAHA AREA

CITY           SKY/WX    TMP DP  RH WIND       PRES   REMARKS
OMAHA EPPLEY   CLOUDY    60  54  80 S17       30.07R
OFFUTT AFB     PTSUNNY   60  54  81 SE10G18   30.06R
$$


USA.gov is the U.S. government's official web portal to all federal, state and local government web resources and services.